Home > Weather > Louisville > Past weeks

Flag for USA Past Weather in Louisville, Kentucky, USA — Yesterday and Last 2 Weeks

Now
72 °F

Passing clouds.


Feels Like: 71 °F
Forecast: 72 / 88 °F
Wind: 5 mph from West

Location: Standiford Field

Current Time: Jun 28, 2016 at 7:33:52 AM

Latest Report: Jun 28, 2016 at 6:56 AM


Visibility: 10 mi

Pressure: 30.02 "Hg

Humidity: 84%

Dew Point: 67 °F

Location of LouisvilleLocation

Past Weather in Louisville — Graph

°F

Louisville Temperature Yesterday

Maximum temperature yesterday: 88 °F (at 3:56 PM)
Minimum temperature yesterday: 75 °F (at 5:56 AM)
Average temperature yesterday: 81 °F

High & Low Weather Summary for the Past Weeks

 TemperatureHumidityPressure
High94 °F (Jun 16, 2:56 PM)94% (Jun 24, 6:56 AM)30.29 "Hg (Jun 24, 6:56 AM)
Low68 °F (Jun 17, 5:56 AM)34% (Jun 13, 6:56 PM)29.74 "Hg (Jun 16, 5:56 PM)
Average81 °F63%29.99 "Hg
* Reported Jun 13 5:56 AM — Jun 28 5:56 AM, Louisville, Weather by CustomWeather, © 2016

Note: Actual official high and low records may vary slightly from our data, if they occured in-between our weather recording intervals... More about our weather records

Advertising

Louisville Weather History for the Previous 24 Hours

Scroll right to see more
 ConditionsComfort  
Time TempWeatherWind HumidityBarometerVisibility
5:56 AM
Tue, Jun 28
72 °FPassing clouds.6 mph84%30.01 "Hg10 mi
4:56 AM73 °FPassing clouds.7 mph84%30.00 "Hg10 mi
3:56 AM74 °FPassing clouds.5 mph82%30.00 "Hg10 mi
2:56 AM75 °FPassing clouds.5 mph79%30.01 "Hg10 mi
1:56 AM76 °FPassing clouds.5 mph72%30.01 "Hg10 mi
12:56 AM78 °FPassing clouds.6 mph62%30.02 "Hg10 mi
11:56 PM
Mon, Jun 27
79 °FPassing clouds.3 mph65%30.03 "Hg10 mi
10:56 PM79 °FPartly cloudy.3 mph62%30.03 "Hg10 mi
9:56 PM80 °FPartly sunny.7 mph62%30.01 "Hg10 mi
8:56 PM82 °FPartly sunny.No wind58%30.01 "Hg10 mi
7:56 PM87 °FPartly sunny.No wind45%30.00 "Hg10 mi
6:56 PM87 °FBroken clouds.3 mph43%30.00 "Hg10 mi
5:56 PM88 °FPartly sunny.6 mph40%30.00 "Hg10 mi
4:56 PM87 °FPartly sunny.10 mph42%29.99 "Hg10 mi
3:56 PM88 °FPartly sunny.9 mph52%29.99 "Hg10 mi
2:56 PM85 °FMostly cloudy.6 mph57%30.02 "Hg10 mi
1:56 PM83 °FPartly sunny.7 mph68%30.05 "Hg10 mi
12:56 PM82 °FCloudy.6 mph70%30.07 "Hg10 mi
11:56 AM80 °FMostly cloudy.9 mph76%30.07 "Hg10 mi
10:56 AM80 °FMostly cloudy.10 mph74%30.08 "Hg10 mi
9:57 AM80 °FPartly sunny.6 mph71%30.08 "Hg10 mi
8:56 AM80 °FPartly sunny.3 mph74%30.05 "Hg10 mi
7:56 AM78 °FBroken clouds.5 mph76%30.05 "Hg10 mi
Weather by CustomWeather, © 2016

See weather overviewHow to use our weather pages